Date String (YYYY-MM-DD hh:mm:ss) UTC,Instrument flags,Ambient pressure (hPa),Sample flow (lpm),Bypass flow (lpm),Sample temperature (°C),Ambient temperature (°C),ASC tube jacket temperature (°C),LED temperature (°C),Box temperature (°C),Sample RH (%),Span deviation,Mass concentration (μg/m³),Mass concentration (μg/m³),Mass concentration (μg/m³)
DateTimeUTC,F1_M11,P_M11,Q1_M11,Q2_M11,T1_M11,T2_M11,T3_M11,T4_M11,T5_M11,U1_M11,ZSPAN_M11,X0_M11,X2_M11,X1_M11
2022-11-16 04:00:00,,0832.6,5.00,0.00,21.5,21.9,00.0,30.2,23.5,06.7,0000.0,0002.20,0001.62,0001.53
2022-11-16 04:01:00,,0832.6,4.99,0.00,21.5,21.7,00.0,30.2,23.6,06.6,0000.0,0002.22,0001.63,0001.54
2022-11-16 04:02:00,,0832.7,5.00,0.00,21.6,21.3,00.0,30.3,23.5,06.6,0000.0,0002.22,0001.63,0001.53
2022-11-16 04:03:00,,0832.6,5.02,0.00,21.6,21.0,00.0,30.3,23.4,06.5,0000.0,0002.26,0001.62,0001.53
2022-11-16 04:04:00,,0832.7,4.98,0.00,21.6,20.7,00.0,30.3,23.4,06.4,0000.0,0002.41,0001.60,0001.51
2022-11-16 04:05:00,,0832.7,5.00,0.00,21.6,20.5,00.0,30.4,23.4,06.5,0000.0,0002.35,0001.58,0001.50
2022-11-16 04:06:00,,0832.7,5.01,0.00,21.5,20.3,00.0,30.4,23.3,06.7,0000.0,0002.45,0001.60,0001.50
2022-11-16 04:07:00,,0832.7,5.00,0.00,21.5,20.1,00.0,30.4,23.2,06.6,0000.0,0002.41,0001.61,0001.51
2022-11-16 04:08:00,,0832.7,4.99,0.00,21.5,20.0,00.0,30.4,23.2,06.3,0000.0,0002.39,0001.60,0001.50
2022-11-16 04:09:00,,0832.7,4.99,0.00,21.5,20.0,00.0,30.4,23.2,06.3,0000.0,0002.36,0001.58,0001.49
2022-11-16 04:10:00,,0832.8,5.00,0.00,21.5,20.0,00.0,30.4,23.2,06.3,0000.0,0002.33,0001.56,0001.48
2022-11-16 04:11:00,,0832.8,5.01,0.00,21.5,20.1,00.0,30.4,23.2,06.2,0000.0,0002.32,0001.54,0001.46
2022-11-16 04:12:00,,0832.8,5.01,0.00,21.5,20.1,00.0,30.4,23.3,06.3,0000.0,0002.29,0001.53,0001.45
2022-11-16 04:13:00,,0832.7,4.99,0.00,21.5,20.1,00.0,30.4,23.3,06.4,0000.0,0002.27,0001.52,0001.44
2022-11-16 04:14:00,,0832.7,4.99,0.00,21.5,20.1,00.0,30.4,23.3,06.5,0000.0,0002.33,0001.54,0001.44
2022-11-16 04:15:00,,0832.7,5.01,0.00,21.5,20.1,00.0,30.4,23.3,06.6,0000.0,0002.16,0001.56,0001.45
2022-11-16 04:16:00,,0832.8,5.01,0.00,21.5,20.8,00.0,30.3,23.4,06.6,0000.0,0002.52,0001.56,0001.45
2022-11-16 04:17:00,,0832.8,5.00,0.00,21.6,21.7,00.0,30.3,23.6,06.7,0000.0,0002.44,0001.55,0001.45
2022-11-16 04:18:00,,0832.9,5.00,0.00,21.7,21.9,00.0,30.4,23.7,06.6,0000.0,0002.37,0001.53,0001.43
2022-11-16 04:19:00,,0832.8,4.99,0.00,21.8,21.7,00.0,30.4,23.7,06.6,0000.0,0002.36,0001.53,0001.44
2022-11-16 04:20:00,,0832.8,5.01,0.00,21.8,21.4,00.0,30.5,23.7,06.7,0000.0,0002.37,0001.54,0001.45
2022-11-16 04:21:00,,0832.9,5.00,0.00,21.8,21.2,00.0,30.5,23.6,06.9,0000.0,0002.43,0001.59,0001.49
2022-11-16 04:22:00,,0833.0,4.99,0.00,21.8,21.0,00.0,30.5,23.6,06.8,0000.0,0002.48,0001.62,0001.52
2022-11-16 04:23:00,,0833.0,5.00,0.00,21.8,20.9,00.0,30.6,23.6,06.7,0000.0,0002.50,0001.64,0001.53
2022-11-16 04:24:00,,0833.0,5.01,0.00,21.8,20.8,00.0,30.6,23.6,06.6,0000.0,0002.49,0001.64,0001.53
2022-11-16 04:25:00,,0833.0,5.01,0.00,21.8,20.7,00.0,30.6,23.6,06.5,0000.0,0002.46,0001.63,0001.54
2022-11-16 04:26:00,,0833.1,5.01,0.00,21.8,20.6,00.0,30.6,23.6,06.5,0000.0,0002.43,0001.61,0001.54
2022-11-16 04:27:00,,0833.1,5.00,0.00,21.8,20.6,00.0,30.6,23.6,06.7,0000.0,0002.18,0001.63,0001.55
2022-11-16 04:28:00,,0833.0,5.00,0.00,21.8,20.5,00.0,30.6,23.6,06.7,0000.0,0002.12,0001.65,0001.57
2022-11-16 04:29:00,,0833.0,4.99,0.00,21.8,20.5,00.0,30.6,23.6,06.7,0000.0,0002.11,0001.67,0001.59
2022-11-16 04:30:00,,0833.1,4.99,0.00,21.8,20.5,00.0,30.6,23.6,06.7,0000.0,0002.23,0001.73,0001.62
2022-11-16 04:31:00,,0833.1,5.00,0.00,21.8,20.5,00.0,30.6,23.5,06.7,0000.0,0002.26,0001.74,0001.63
2022-11-16 04:32:00,,0833.1,5.00,0.00,21.7,20.4,00.0,30.6,23.5,06.8,0000.0,0002.28,0001.75,0001.64
2022-11-16 04:33:00,,0833.1,5.01,0.00,21.7,20.6,00.0,30.6,23.5,06.9,0000.0,0002.71,0001.82,0001.66
2022-11-16 04:34:00,,0833.1,5.01,0.00,21.8,21.4,00.0,30.6,23.7,06.9,0000.0,0003.58,0002.04,0001.71
2022-11-16 04:35:00,,0833.1,4.99,0.00,21.9,22.1,00.0,30.6,23.9,06.9,0000.0,0004.91,0002.34,0001.76
2022-11-16 04:36:00,,0833.1,4.98,0.00,22.0,21.9,00.0,30.6,24.0,06.9,0000.0,0006.14,0002.65,0001.81
2022-11-16 04:37:00,,0833.1,5.00,0.00,22.0,21.6,00.0,30.7,23.9,06.9,0000.0,0007.45,0002.96,0001.87
2022-11-16 04:38:00,,0833.1,5.00,0.00,22.0,21.2,00.0,30.7,23.9,06.8,0000.0,0008.22,0003.20,0001.91
2022-11-16 04:39:00,,0833.1,5.01,0.00,22.0,21.0,00.0,30.8,23.8,06.8,0000.0,0008.65,0003.31,0001.93
2022-11-16 04:40:00,,0833.1,4.99,0.00,21.9,20.8,00.0,30.8,23.8,06.7,0000.0,0009.04,0003.39,0001.94
2022-11-16 04:41:00,,0833.1,5.01,0.00,21.9,20.7,00.0,30.8,23.8,06.5,0000.0,0009.55,0003.42,0001.94
2022-11-16 04:42:00,,0833.1,5.00,0.00,21.9,20.6,00.0,30.8,23.7,06.5,0000.0,0009.97,0003.49,0001.95
2022-11-16 04:43:00,,0833.1,5.01,0.00,21.9,20.5,00.0,30.8,23.7,06.6,0000.0,0010.03,0003.51,0001.95
2022-11-16 04:44:00,,0833.1,5.00,0.00,21.9,20.5,00.0,30.8,23.7,06.6,0000.0,0010.00,0003.52,0001.93
2022-11-16 04:45:00,,0833.1,4.99,0.00,21.9,20.4,00.0,30.8,23.7,06.5,0000.0,0010.09,0003.49,0001.90
2022-11-16 04:46:00,,0833.1,5.00,0.00,21.8,20.3,00.0,30.8,23.6,06.5,0000.0,0010.08,0003.41,0001.86
2022-11-16 04:47:00,,0833.1,4.99,0.00,21.8,20.3,00.0,30.8,23.6,06.4,0000.0,0010.06,0003.30,0001.82
2022-11-16 04:48:00,,0833.1,5.01,0.00,21.8,20.3,00.0,30.8,23.6,06.4,0000.0,0009.43,0003.17,0001.78
2022-11-16 04:49:00,,0833.1,5.00,0.00,21.8,20.3,00.0,30.8,23.6,06.4,0000.0,0009.43,0002.97,0001.74
2022-11-16 04:50:00,,0833.1,4.99,0.00,21.8,20.4,00.0,30.7,23.6,06.4,0000.0,0009.43,0002.78,0001.70
2022-11-16 04:51:00,,0833.1,5.00,0.00,21.8,21.2,00.0,30.7,23.7,06.4,0000.0,0009.70,0002.67,0001.67
2022-11-16 04:52:00,,0833.1,4.99,0.00,21.9,21.9,00.0,30.7,23.9,06.4,0000.0,0009.22,0002.59,0001.65
2022-11-16 04:53:00,,0833.1,4.99,0.00,22.0,21.8,00.0,30.7,24.0,06.3,0000.0,0008.91,0002.57,0001.64
2022-11-16 04:54:00,,0833.1,5.00,0.00,22.0,21.5,00.0,30.8,23.9,06.3,0000.0,0008.85,0002.51,0001.62
2022-11-16 04:55:00,,0833.1,5.01,0.00,22.0,21.2,00.0,30.8,23.9,06.3,0000.0,0008.84,0002.51,0001.61
2022-11-16 04:56:00,,0833.2,4.99,0.00,22.0,21.0,00.0,30.8,23.8,06.3,0000.0,0008.98,0002.44,0001.61
2022-11-16 04:57:00,,0833.2,4.98,0.00,22.0,20.8,00.0,30.8,23.8,06.2,0000.0,0008.45,0002.36,0001.60
2022-11-16 04:58:00,,0833.1,5.01,0.00,22.0,20.7,00.0,30.8,23.8,06.5,0000.0,0007.92,0002.32,0001.59
2022-11-16 04:59:00,,0833.2,5.01,0.00,21.9,20.6,00.0,30.8,23.7,06.6,0000.0,0008.09,0002.30,0001.58
